CZ-6A DEB, 56283

Orbit data source: Space-Track

CZ-6A DEB, 56283 is space debris in SSO originally from a launch on Fri, 11 Nov 2022 UTC launched from the Taiyaun Space Center, China (TSC). Debris objects in space refer to the collection of defunct objects orbiting the Earth. Examples of debris include non-operational satellites, rocket bodies, and fragments generated from explosions, collisions, or faulty payload assembly.

Loading next visibility...
Identifier
56283, 2022-151ADB
Orbit
SSO
Country
Flag of CNCN / PRC
Related business
Manufacturer
SAST
Mission
Spacecraft
Bus & Motor
Unknown
Mass
Unknown
Launch date (UTC)
2022-11-11 (4 years ago)
Launch vehicle
Unknown
Launch site
Taiyaun Space Center, China (TSC)
Object type
Payload
Rocket body
Debris
Shape & HBR
Unknown shape, 0.1 m
Radar Cross Section
Small (<0.1 m²)

Expand to show TLE details & history
Last TLE update: 2 days ago

TLE from 2 days ago
0 CZ-6A DEB
1 56283U 22151ADB 26171.09805231  .00015658  00000-0  20786-2 0  9990
2 56283  98.5762 223.8534 0050243 290.1049  69.4758 14.79008736172520
Epoch: 2026-06-20T02:21Z
TLE epoch observation values (Epoch: 2026-06-20T02:21:11.719Z)
Latitude
-0.00001°
Longitude
-79.76298°
Altitude
623.258 km
Speed
7.554 km/s
True Right ascension
14h 55m 24s
True Declination
0° 00' 00"
Sunlit
Object was in full shadow at epoch
Visualization orbit readout
Latitude
Unknown
Longitude
Unknown
Altitude
Unknown
Speed
Unknown
Apparent Right ascension
Unknown
Apparent Declination
Unknown
Sunlit
N/A
Visualization observer readout
Local Sidereal Time
21:27:36
Azimuth
Unknown
Elevation
Unknown
Doppler factor
Unknown
Orbital elements
Apogee altitude
664.737 km
Perigee altitude
594.32 km
Semi-major axis
7,007.665 km
Eccentricity
0.00502
Inclination
98.5762°
RAAN
223.8534°
Arg. of periapsis
290.1049°
True anomaly
70.01618°
Mean anomaly
69.4758°
Eccentric anomaly
69.74587°
Mean motion
3.69984 °/min
Orbital period
97.3 mins
BSTAR
0.0020786
Loading maneuver chart data...
Computing Atmospheric mass density...
Loading historical data...
Loading historical data...
Loading historical data...
Loading historical data...
Loading historical data...
Loading historical data...
Loading historical data...

Documentation

Showing up to 5 results
|